Location: Township of Marena
(38.1747°N, 99.6798°W)
Time: 03:32:45
(UTC+00:00)

FALCON 9 DEB - Pass Details

Date: 26 October 2020
Orbit: 382 x 399 km, 53.0° (Epoch: 27 November)

Event Time Altitude Azimuth Distance (km) Brightness Sun altitude
Rises 00:49:25 0° 245° (WSW) 2,315 8.3 -12.9°
Reaches altitude 10° 00:51:35 10° 254° (WSW) 1,457 7.2 -13.3°
Maximum altitude 00:54:39 37° 324° (NW) 648 4.3 -13.9°
Enters shadow 00:57:03 15° 29° (NNE) 1,214 5.1 -14.4°
